QLK862D YPAD-YKSC

Flight info

Callsign QLK862D
Flight time 0h 29m
Altitude 14000
Route AD V504 VAVPA
Aircraft DH8D/M-SDE2E3FGRY/H

Departure

Time 2026-04-15 04:30
Airport Adelaide International Airport (YPAD)

Arrival

Time 2026-04-15 04:59
Airport Kingscote Airport (YKSC)
Time Latitude Longitude Altitude Speed Heading
2026-04-15 04:05 -34.94032 138.53513 23 ft 0 kts 184°
2026-04-15 04:19 -34.94024 138.53514 47 ft 2 kts 183°
2026-04-15 04:19 -34.94008 138.53515 20 ft 2 kts 186°
2026-04-15 04:20 -34.93992 138.53520 25 ft 2 kts 214°
2026-04-15 04:20 -34.93990 138.53522 25 ft 0 kts 223°
2026-04-15 04:22 -34.93991 138.53521 25 ft 2 kts 220°
2026-04-15 04:22 -34.93998 138.53514 23 ft 0 kts 211°
2026-04-15 04:24 -34.94026 138.53473 24 ft 14 kts 230°
2026-04-15 04:24 -34.94129 138.53358 24 ft 21 kts 164°
2026-04-15 04:25 -34.94208 138.53432 24 ft 0 kts 142°
2026-04-15 04:25 -34.94266 138.53500 23 ft 19 kts 109°
2026-04-15 04:25 -34.94222 138.53593 21 ft 0 kts 64°
2026-04-15 04:25 -34.94222 138.53630 20 ft 15 kts 119°
2026-04-15 04:26 -34.94326 138.53604 20 ft 20 kts 231°
2026-04-15 04:26 -34.94413 138.53476 20 ft 19 kts 227°
2026-04-15 04:26 -34.94496 138.53351 20 ft 19 kts 234°
2026-04-15 04:26 -34.94505 138.53211 21 ft 17 kts 290°
2026-04-15 04:27 -34.94574 138.53127 19 ft 16 kts 202°
2026-04-15 04:27 -34.94682 138.53082 18 ft 16 kts 206°
2026-04-15 04:27 -34.94789 138.53031 19 ft 17 kts 199°
2026-04-15 04:27 -34.94856 138.53001 19 ft 0 kts 201°
2026-04-15 04:28 -34.94890 138.52984 18 ft 17 kts 195°
2026-04-15 04:28 -34.94924 138.53069 21 ft 6 kts 52°
2026-04-15 04:29 -34.94923 138.53070 21 ft 0 kts 52°
2026-04-15 04:29 -34.94833 138.53205 21 ft 68 kts 51°
2026-04-15 04:29 -34.94350 138.53900 22 ft 138 kts 49°
2026-04-15 04:29 -34.93687 138.54898 329 ft 156 kts 51°
2026-04-15 04:30 -34.92993 138.55913 834 ft 161 kts 45°
2026-04-15 04:30 -34.92007 138.56586 1210 ft 174 kts
2026-04-15 04:30 -34.90830 138.56139 1394 ft 188 kts 320°
2026-04-15 04:30 -34.90061 138.54911 2048 ft 177 kts 293°
2026-04-15 04:31 -34.89720 138.53386 2217 ft 201 kts 280°
2026-04-15 04:31 -34.89501 138.51660 2523 ft 205 kts 279°
2026-04-15 04:31 -34.89285 138.49957 3069 ft 201 kts 279°
2026-04-15 04:31 -34.89071 138.48299 3598 ft 200 kts 279°
2026-04-15 04:32 -34.88851 138.46631 4126 ft 198 kts 279°
2026-04-15 04:32 -34.88633 138.44975 4663 ft 197 kts 279°
2026-04-15 04:32 -34.88417 138.43339 5199 ft 193 kts 279°
2026-04-15 04:32 -34.88198 138.41774 5702 ft 182 kts 279°
2026-04-15 04:33 -34.87990 138.40276 6123 ft 179 kts 279°
2026-04-15 04:33 -34.87777 138.38772 6440 ft 181 kts 279°
2026-04-15 04:33 -34.87544 138.37276 6837 ft 178 kts 287°
2026-04-15 04:33 -34.87102 138.35870 7192 ft 177 kts 287°
2026-04-15 04:34 -34.86714 138.34462 7594 ft 174 kts 290°
2026-04-15 04:34 -34.86338 138.33077 7938 ft 173 kts 273°
2026-04-15 04:34 -34.86651 138.31658 8115 ft 183 kts 234°
2026-04-15 04:34 -34.87620 138.30677 8578 ft 177 kts 217°
2026-04-15 04:35 -34.88614 138.29890 9107 ft 169 kts 217°
2026-04-15 04:35 -34.89640 138.29218 9577 ft 167 kts 211°
2026-04-15 04:35 -34.90682 138.28571 9964 ft 168 kts 215°
2026-04-15 04:35 -34.91699 138.27863 10360 ft 167 kts 213°
2026-04-15 04:36 -34.92724 138.27214 10789 ft 165 kts 214°
2026-04-15 04:36 -34.93725 138.26538 11187 ft 165 kts 215°
2026-04-15 04:36 -34.94739 138.25874 11578 ft 165 kts 213°
2026-04-15 04:36 -34.95740 138.25214 12016 ft 163 kts 215°
2026-04-15 04:37 -34.96721 138.24560 12439 ft 162 kts 214°
2026-04-15 04:37 -34.97731 138.23900 12861 ft 163 kts 215°
2026-04-15 04:37 -34.98707 138.23245 13297 ft 162 kts 214°
2026-04-15 04:37 -34.99697 138.22601 13750 ft 161 kts 215°
2026-04-15 04:38 -35.00677 138.21945 14162 ft 161 kts 215°
2026-04-15 04:38 -35.01718 138.21238 14191 ft 185 kts 215°
2026-04-15 04:38 -35.02903 138.20433 14264 ft 201 kts 214°
2026-04-15 04:38 -35.04130 138.19638 14688 ft 195 kts 214°
2026-04-15 04:39 -35.05371 138.18799 14680 ft 213 kts 214°
2026-04-15 04:39 -35.06625 138.17972 15293 ft 196 kts 213°
2026-04-15 04:39 -35.07877 138.17140 15326 ft 211 kts 215°
2026-04-15 04:39 -35.09119 138.16310 15941 ft 197 kts 213°
2026-04-15 04:40 -35.10332 138.15520 16234 ft 202 kts 215°
2026-04-15 04:40 -35.11609 138.14641 16260 ft 218 kts 214°
2026-04-15 04:40 -35.12964 138.13754 16478 ft 222 kts 213°
2026-04-15 04:40 -35.14295 138.12873 16837 ft 219 kts 215°
2026-04-15 04:41 -35.15732 138.11879 16231 ft 256 kts 214°
2026-04-15 04:41 -35.17327 138.10808 16186 ft 261 kts 214°
2026-04-15 04:41 -35.18922 138.09741 16262 ft 262 kts 214°
2026-04-15 04:41 -35.20524 138.08669 16329 ft 262 kts 214°
2026-04-15 04:42 -35.22123 138.07598 16399 ft 262 kts 213°
2026-04-15 04:42 -35.23732 138.06523 16474 ft 263 kts 214°
2026-04-15 04:42 -35.25378 138.05405 16045 ft 278 kts 214°
2026-04-15 04:42 -35.27060 138.04253 15599 ft 284 kts 214°
2026-04-15 04:43 -35.28779 138.03100 15160 ft 279 kts 213°
2026-04-15 04:43 -35.30478 138.01980 14703 ft 275 kts 213°
2026-04-15 04:43 -35.32153 138.00864 14244 ft 272 kts 213°
2026-04-15 04:43 -35.33807 137.99768 13765 ft 270 kts 213°
2026-04-15 04:44 -35.35464 137.98705 13241 ft 268 kts 212°
2026-04-15 04:44 -35.37113 137.97654 12730 ft 266 kts 212°
2026-04-15 04:44 -35.38750 137.96610 12218 ft 264 kts 212°
2026-04-15 04:44 -35.40354 137.95586 11723 ft 262 kts 212°
2026-04-15 04:45 -35.41966 137.94552 11227 ft 260 kts 212°
2026-04-15 04:45 -35.43565 137.93521 10738 ft 258 kts 212°
2026-04-15 04:45 -35.45152 137.92495 10247 ft 257 kts 212°
2026-04-15 04:45 -35.46729 137.91470 9738 ft 255 kts 212°
2026-04-15 04:46 -35.48289 137.90453 9195 ft 253 kts 212°
2026-04-15 04:46 -35.51253 137.88555 8946 ft 224 kts 211°
2026-04-15 04:46 -35.52597 137.87730 8927 ft 210 kts 211°
2026-04-15 04:47 -35.53891 137.86949 8745 ft 206 kts 211°
2026-04-15 04:47 -35.55170 137.86182 8552 ft 203 kts 211°
2026-04-15 04:47 -35.56330 137.85487 8381 ft 201 kts 211°
2026-04-15 04:47 -35.57604 137.84725 8201 ft 198 kts 211°
2026-04-15 04:48 -35.58843 137.83985 8030 ft 197 kts 210°
2026-04-15 04:48 -35.60052 137.83263 7875 ft 195 kts 210°
2026-04-15 04:48 -35.61266 137.82537 7718 ft 193 kts 210°
2026-04-15 04:48 -35.62490 137.81861 7559 ft 193 kts 205°
2026-04-15 04:49 -35.63693 137.81169 7425 ft 189 kts 213°
2026-04-15 04:49 -35.64836 137.80367 7288 ft 188 kts 214°
2026-04-15 04:49 -35.65968 137.79569 7153 ft 187 kts 214°
2026-04-15 04:49 -35.67096 137.78770 7025 ft 186 kts 214°
2026-04-15 04:50 -35.68217 137.77973 6909 ft 185 kts 214°
2026-04-15 04:50 -35.68955 137.77451 6824 ft 185 kts 214°
2026-04-15 04:50 -35.70065 137.76662 6710 ft 184 kts 214°
2026-04-15 04:50 -35.71173 137.75877 6599 ft 183 kts 214°
2026-04-15 04:51 -35.72626 137.74844 6442 ft 181 kts 214°
2026-04-15 04:51 -35.73362 137.74318 6364 ft 182 kts 214°
2026-04-15 04:51 -35.74447 137.73529 6269 ft 183 kts 214°
2026-04-15 04:51 -35.75943 137.72403 5720 ft 193 kts 215°
2026-04-15 04:52 -35.76700 137.71817 5431 ft 195 kts 215°
2026-04-15 04:52 -35.77856 137.70915 4993 ft 197 kts 215°
2026-04-15 04:52 -35.79014 137.70011 4544 ft 198 kts 215°
2026-04-15 04:52 -35.80180 137.69106 4102 ft 199 kts 215°
2026-04-15 04:53 -35.81356 137.68195 3659 ft 200 kts 215°
2026-04-15 04:53 -35.82529 137.67266 3212 ft 200 kts 216°
2026-04-15 04:53 -35.83554 137.66143 2758 ft 197 kts 243°
2026-04-15 04:53 -35.83798 137.64536 2314 ft 194 kts 282°
2026-04-15 04:54 -35.83367 137.62968 1847 ft 193 kts 293°
2026-04-15 04:54 -35.82867 137.61498 1616 ft 181 kts 293°
2026-04-15 04:54 -35.82400 137.60097 1548 ft 169 kts 292°
2026-04-15 04:54 -35.81979 137.58822 1503 ft 157 kts 292°
2026-04-15 04:55 -35.81573 137.57571 1351 ft 157 kts 291°
2026-04-15 04:55 -35.81169 137.56310 1188 ft 156 kts 292°
2026-04-15 04:55 -35.80777 137.55081 1078 ft 153 kts 292°
2026-04-15 04:55 -35.80379 137.53860 966 ft 150 kts 294°
2026-04-15 04:56 -35.79990 137.52738 1108 ft 139 kts 292°
2026-04-15 04:56 -35.79614 137.51593 1294 ft 155 kts 292°
2026-04-15 04:56 -35.79183 137.50225 1382 ft 186 kts 290°
2026-04-15 04:56 -35.78700 137.48667 1440 ft 200 kts 294°
2026-04-15 04:57 -35.77807 137.47400 1441 ft 200 kts 330°
2026-04-15 04:57 -35.77350 137.47168 1435 ft 201 kts 345°
2026-04-15 04:57 -35.77054 137.47098 1405 ft 202 kts 356°
2026-04-15 04:57 -35.75949 137.47889 874 ft 196 kts 72°
2026-04-15 04:58 -35.75597 137.49407 797 ft 173 kts 76°
2026-04-15 04:58 -35.75165 137.50740 543 ft 164 kts 32°
2026-04-15 04:58 -35.74212 137.51329 416 ft 170 kts 17°
2026-04-15 04:58 -35.73154 137.51807 217 ft 155 kts 19°
2026-04-15 04:59 -35.72190 137.52258 43 ft 141 kts 18°
2026-04-15 04:59 -35.71467 137.52597 28 ft 46 kts 23°
2026-04-15 04:59 -35.71183 137.52735 29 ft 36 kts 18°
2026-04-15 04:59 -35.71063 137.52616 28 ft 27 kts 277°
2026-04-15 05:00 -35.71043 137.52417 28 ft 15 kts 292°
2026-04-15 05:00 -35.71002 137.52343 28 ft 5 kts 33°
2026-04-15 05:00 -35.70989 137.52357 28 ft 0 kts 45°